パンスターズ彗星

C/2016 M1 ( PanSTARRS )

English version
Home page
Updated on January 23, 2020

---------------------------------------------------------------------

・ プロフィール

発見日 2016年6月22日
発見光度 19.7等
発見者 Pan-STARRS 1 telescope (Haleakala)

・ 写真集

・ 軌道要素

Epoch 2018 Aug. 30.0 TT = JDT 2458360.5
T 2018 Aug. 10.17307 TT                                 Williams
q   2.2104960            (2000.0)            P               Q
z  +0.0004089      Peri.  209.82587     +0.02468670     -0.03424841
 +/-0.0000002      Node    92.20361     -0.59786013     +0.80048822
e   0.9990961      Incl.   90.99966     -0.80122021     -0.59836917
From 3005 observations 2016 June 22-2019 Nov. 4, mean residual 0".5.

・ 星図

・ 光度変化

        m1 = 7.0 + 5 logΔ +  7.5 log r  [    ,-310]  (              〜2017年10月 4日)
        m1 = 2.5 + 5 logΔ + 15.0 log r  [-310,   0]  (2017年10月 4日〜2018年 8月10日)
        m1 = 4.2 + 5 logΔ + 10.0 log r  [   0,    ]  (2018年 8月10日〜              )

---------------------------------------------------------------------

軌道要素はM.P.E.C. 2019-V116に掲載されたものです。
星図はステラナビゲータ Ver.10 (アストロアーツ) で作成したものです。
光度グラフはComet for Windowsで作成したものです。

---------------------------------------------------------------------

Copyright(C) Seiichi Yoshida (comet@aerith.net). All rights reserved.